Greenwood, MS

8:02 PM CST on November 21, 2019 (GMT -0600)
Greenwood-Leflore

Weather History for KGWO - October, 2019

Change the Weather History Date:

Monday, October 21, 2019

  Actual Average Record
Temperature  
Mean Temperature 66 °F 63 °F  
Max Temperature 73 °F 75 °F 87 °F (1953)
Min Temperature 58 °F 50 °F 27 °F (2011)
Degree Days  
Heating Degree Days 0 5  
Month to date heating degree days 50 60  
Since 1 July heating degree days 50 72  
Cooling Degree Days 1 2  
Month to date cooling degree days 149 77  
Year to date cooling degree days 2547 2124  
Growing Degree Days 15 (Base 50)    
Moisture  
Dew Point 62 °F    
Average Humidity 90    
Maximum Humidity 100    
Minimum Humidity 79    
Precipitation  
Precipitation 1.45 in 0.14 in 1.45 in (2019)
Month to date precipitation 4.35 2.64  
Year to date precipitation 57.14 40.37  
Sea Level Pressure  
Sea Level Pressure 29.85 in    
Wind  
Wind Speed 7 mph (South)    
Max Wind Speed 23 mph    
Max Gust Speed 28 mph    
Visibility 5 miles    
Events Fog , Rain , Thunderstorm    
T = Trace of Precipitation, MM = Missing Value Source: NWS Daily Summary

Daily Weather History Graph

Daily Weather History Graph

Search for Another Location

Airport or City:

Astronomy

Oct. 21, 2019 Rise Set
Actual Time 7:09 AM CDT 6:19 PM CDT
Civil Twilight 6:44 AM CDT 6:45 PM CDT
Nautical Twilight 6:15 AM CDT 7:14 PM CDT
Astronomical Twilight 5:46 AM CDT 7:42 PM CDT
Moon No Moon Rise 2:17 PM CDT (10/21)
Length of Visible Light 12h 00m
Length of Day
11h 10m
Waning Gibbous, 48% of the Moon is Illuminated
Oct 21
Waning Gibbous
Oct 27
New
Nov 4
First Quarter
Nov 12
Full
Nov 19
Last Quarter

Hourly Weather History & Observations

Time (CDT) Temp. Dew Point Humidity Pressure Visibility Wind Dir Wind Speed Gust Speed Precip Events Conditions
12:53 AM 73.0 °F 66.9 °F 81% 29.79 in 10.0 mi South 13.8 mph - N/A   Clear
1:53 AM 73.0 °F 66.0 °F 79% 29.77 in 10.0 mi South 17.3 mph - N/A   Clear
2:18 AM 73.0 °F 66.0 °F 79% 29.77 in 10.0 mi South 13.8 mph - N/A   Mostly Cloudy
2:53 AM 73.0 °F 66.0 °F 79% 29.77 in 10.0 mi South 11.5 mph - N/A   Overcast
3:45 AM 72.0 °F 64.9 °F 78% 29.76 in 10.0 mi South 12.7 mph - N/A   Mostly Cloudy
3:53 AM 72.0 °F 64.9 °F 78% 29.75 in 10.0 mi South 15.0 mph 23.0 mph N/A   Partly Cloudy
4:53 AM 71.1 °F 64.0 °F 78% 29.75 in 10.0 mi South 16.1 mph - N/A   Clear
5:53 AM 70.0 °F 64.9 °F 84% 29.77 in 10.0 mi South 13.8 mph - 0.00 in Rain Light Rain
6:43 AM 69.1 °F 64.9 °F 87% 29.78 in 10.0 mi South 13.8 mph - 0.00 in Thunderstorm Scattered Clouds
6:53 AM 69.1 °F 64.9 °F 87% 29.77 in 9.0 mi South 15.0 mph - 0.01 in Rain Light Rain
7:53 AM 69.1 °F 66.0 °F 90% 29.79 in 3.0 mi South 12.7 mph - 0.09 in Rain Heavy Rain
8:06 AM 70.0 °F 66.9 °F 90% 29.80 in 4.0 mi South 10.4 mph - 0.02 in Rain , Thunderstorm Rain
8:21 AM 70.0 °F 66.9 °F 90% 29.80 in 6.0 mi South 12.7 mph 21.9 mph 0.03 in Rain Light Rain
8:46 AM 64.9 °F - N/A% 29.86 in 2.5 mi NW 11.5 mph 24.2 mph 0.13 in Rain Light Rain
8:53 AM 64.0 °F - N/A% 29.86 in 1.0 mi WNW 8.1 mph 24.2 mph 0.22 in Rain Heavy Rain
9:02 AM 64.0 °F - N/A% 29.87 in 2.0 mi Variable 3.5 mph 18.4 mph 0.06 in Rain , Thunderstorm Heavy Rain
9:07 AM 64.0 °F 61.0 °F 90% 29.87 in 0.8 mi Calm Calm - 0.18 in Rain , Thunderstorm Heavy Rain
9:13 AM 63.0 °F 61.0 °F 93% 29.86 in 0.5 mi Calm Calm - 0.30 in Fog , Rain Heavy Rain
9:26 AM 63.0 °F 62.1 °F 97% 29.86 in 1.5 mi SE 9.2 mph - 0.40 in Rain Heavy Rain
9:29 AM 63.0 °F 61.0 °F 93% 29.86 in 2.5 mi SE 5.8 mph - 0.41 in Rain Heavy Rain
9:39 AM 63.0 °F 61.0 °F 93% 29.87 in 3.0 mi SSE 8.1 mph - 0.44 in Rain Rain
9:53 AM 63.0 °F 62.1 °F 97% 29.88 in 2.0 mi SSE 6.9 mph - 0.50 in Rain Heavy Rain
10:08 AM 63.0 °F 62.1 °F 97% 29.87 in 3.0 mi SE 4.6 mph - 0.04 in Rain Heavy Rain
10:53 AM 64.0 °F 62.1 °F 93% 29.86 in 9.0 mi SSE 5.8 mph - 0.10 in Rain Rain
11:53 AM 64.0 °F 62.1 °F 93% 29.86 in 7.0 mi SE 8.1 mph - 0.08 in Rain Light Rain
12:27 PM 64.0 °F 62.1 °F 93% 29.89 in 2.5 mi SSE 13.8 mph - 0.09 in Rain Heavy Rain
12:53 PM 64.0 °F 62.1 °F 93% 29.86 in 3.0 mi SSE 13.8 mph - 0.17 in Rain Heavy Rain
12:57 PM 64.0 °F 62.1 °F 93% 29.86 in 1.8 mi SSE 16.1 mph - 0.04 in Rain Heavy Rain
1:09 PM 64.0 °F 62.1 °F 93% 29.85 in 3.0 mi SSE 12.7 mph - 0.08 in Rain Rain
1:39 PM 64.0 °F 62.1 °F 93% 29.84 in 2.5 mi South 12.7 mph - 0.15 in Rain Rain
1:48 PM 64.4 °F 62.6 °F 94% 29.84 in 4.0 mi SSE 13.8 mph - 0.17 in Rain Light Rain
1:53 PM 64.0 °F 62.1 °F 93% 29.83 in 3.0 mi SSE 11.5 mph - 0.19 in Rain Heavy Rain
2:53 PM 64.0 °F 62.1 °F 93% 29.82 in 10.0 mi South 6.9 mph - 0.06 in Rain Light Rain
3:02 PM 64.9 °F 62.1 °F 90% 29.83 in 10.0 mi South 6.9 mph - 0.00 in   Overcast
3:53 PM 64.9 °F 63.0 °F 93% 29.83 in 8.0 mi South 5.8 mph - 0.00 in Rain Light Rain
4:04 PM 64.9 °F 63.0 °F 93% 29.83 in 2.5 mi South 6.9 mph - 0.02 in Rain Rain
4:06 PM 64.9 °F 63.0 °F 93% 29.83 in 3.0 mi South 6.9 mph - 0.02 in Rain Rain
4:38 PM 64.9 °F 63.0 °F 93% 29.83 in 6.0 mi South 8.1 mph - 0.02 in   Overcast
4:45 PM 64.9 °F 62.1 °F 90% 29.83 in 3.0 mi SSW 6.9 mph - 0.03 in Rain Light Rain
4:53 PM 64.0 °F 63.0 °F 96% 29.83 in 3.0 mi SW 3.5 mph - 0.03 in Rain Light Rain
5:26 PM 64.0 °F 63.0 °F 96% 29.83 in 9.0 mi SSW 4.6 mph - 0.00 in   Overcast
5:33 PM 64.0 °F 63.0 °F 96% 29.83 in 10.0 mi South 5.8 mph - 0.00 in   Overcast
5:50 PM 64.4 °F 62.6 °F 94% 29.83 in 10.0 mi South 6.9 mph - 0.00 in   Overcast
6:07 PM 64.0 °F 62.1 °F 93% 29.84 in 10.0 mi SW 4.6 mph - N/A   Overcast
6:53 PM 64.0 °F 62.1 °F 93% 29.85 in 10.0 mi Calm Calm - N/A   Overcast
7:53 PM 63.0 °F 61.0 °F 93% 29.88 in 10.0 mi Calm Calm - N/A   Mostly Cloudy
8:06 PM 62.1 °F 61.0 °F 96% 29.89 in 1.8 mi Calm Calm - N/A   Partly Cloudy
8:13 PM 62.1 °F 61.0 °F 96% 29.90 in 0.8 mi Calm Calm - N/A   Partly Cloudy
8:17 PM 61.0 °F 59.0 °F 93% 29.91 in 1.0 mi Calm Calm - N/A   Mist
8:34 PM 60.1 °F 59.0 °F 96% 29.91 in 0.5 mi Calm Calm - N/A Fog Fog
8:44 PM 60.1 °F 57.9 °F 93% 29.91 in 0.8 mi Calm Calm - N/A   Clear
8:53 PM 60.1 °F 59.0 °F 96% 29.91 in 1.0 mi Calm Calm - N/A   Mist
9:08 PM 59.0 °F 59.0 °F 100% 29.92 in 1.2 mi Calm Calm - N/A   Partly Cloudy
9:10 PM 59.0 °F 59.0 °F 100% 29.92 in 0.8 mi Calm Calm - N/A   Mist
9:27 PM 59.0 °F 57.9 °F 96% 29.93 in 0.2 mi Calm Calm - N/A Fog Fog
10:33 PM 59.0 °F 59.0 °F 100% 29.94 in 0.5 mi Calm Calm - N/A Fog Fog
10:46 PM 57.9 °F 57.9 °F 100% 29.94 in 0.2 mi South 3.5 mph - N/A Fog Fog
10:53 PM 57.9 °F 57.0 °F 97% 29.94 in 0.2 mi South 4.6 mph - N/A Fog Fog
11:01 PM 59.0 °F 57.0 °F 93% 29.95 in 0.2 mi SSW 4.6 mph - N/A Fog Fog
11:53 PM 60.1 °F 59.0 °F 96% 29.94 in 0.2 mi WSW 3.5 mph - N/A Fog Fog